SCP
0 0 0 1 1 0 0 0 0 1 1 1 1 0 0 0 0 0 0 0 0 0 0 0 0 0 0 0 0 0 0 0 0 0 0 0 0 0 0 0 0 0 0
0 0 0 1 0 0 0 0 0 1 1 1 1 0 0 0 0 0 0 0 0 0 0 0 0 0 0 0 0 0 0 0 0 0 0 0 0 0 0 0 0 0 0
0 0 0 0 0 0 0 0 0 1 0 0 0 0 0 0 0 0 0 0 0 0 0 0 0 0 0 0 0 0 0 0 0 0 0 0 0 0 0 0 0 0 0
0 0 0 0 0 0 0 0 0 1 1 0 0 0 0 0 0 0 0 0 0 0 0 0 0 0 0 0 0 0 0 0 0 0 0 0 0 0 0 0 0 0 0
0 0 0 0 0 1 0 0 0 0 1 1 0 0 0 0 0 0 0 0 0 0 0 0 0 0 0 0 0 0 0 0 0 0 0 0 0 0 0 0 0 0 0
0 0 0 0 1 1 1 0 0 0 0 1 1 0 0 0 0 0 0 0 0 0 0 0 0 0 0 0 0 0 0 0 0 0 0 0 0 0 0 0 0 0 0
0 0 0 0 1 1 1 0 0 0 0 0 0 0 0 0 0 0 0 0 0 0 0 0 0 0 0 0 0 0 0 0 0 0 0 0 0 0 0 0 0 0 0
0 0 0 0 0 1 1 0 0 0 0 0 0 0 0 0 0 0 0 0 0 0 0 0 0 0 0 0 0 0 0 0 0 0 0 0 0 0 0 0 0 0 0
0 0 0 0 0 0 0 0 0 0 0 0 0 0 0 0 0 0 0 0 0 0 0 0 0 0 0 0 0 0 0 0 0 0 0 0 0 0 0 0 0 0 0
0 0 0 0 0 0 0 0 0 0 0 0 0 0 0 0 0 0 0 0 0 0 0 0 0 0 0 0 0 0 0 0 0 0 0 0 0 0 0 0 0 0 0
0 0 0 0 0 0 0 0 0 0 0 0 0 0 0 0 0 0 0 0 0 0 0 0 0 0 0 0 0 0 0 0 0 0 0 0 0 0 0 0 0 0 0
0 0 0 0 0 0 0 0 0 0 0 0 0 0 0 0 0 0 0 0 0 0 0 0 0 0 0 0 0 0 0 0 0 0 0 0 0 0 0 0 0 0 0
0 0 0 0 0 0 0 0 0 0 0 0 0 0 0 0 0 0 0 0 0 0 0 0 0 0 0 0 0 0 0 0 0 0 0 0 0 0 0 0 0 0 0
0 0 0 0 1 1 1 0 0 0 0 0 0 0 0 0 0 0 0 0 0 0 0 0 0 0 0 0 0 0 0 0 0 0 0 0 0 0 0 0 0 0 1
0 0 0 1 1 1 1 1 0 0 0 0 0 0 0 0 0 0 0 0 0 0 0 0 0 0 0 0 0 0 0 0 0 0 0 0 0 0 0 0 0 0 1
0 0 0 1 1 1 1 1 1 0 0 0 0 0 0 0 0 0 0 0 0 0 0 0 0 0 0 0 0 0 0 0 0 0 0 0 0 0 0 0 0 1 1
1 1 1 1 1 1 1 1 1 0 0 0 0 0 0 0 0 0 0 0 0 0 0 0 0 0 0 0 0 0 0 0 0 0 0 0 0 0 0 0 0 0 1
1 1 1 1 1 1 1 1 1 0 0 0 0 0 0 0 0 0 0 0 0 0 0 0 0 0 0 0 0 0 0 0 0 0 0 0 0 0 0 0 0 0 0
1 1 1 1 1 1 1 1 1 0 0 0 0 0 0 0 0 0 0 0 0 0 0 0 0 0 0 0 0 0 0 0 0 0 0 0 0 0 0 0 0 0 0
1 1 1 1 1 1 1 1 1 1 0 0 0 0 0 0 0 0 0 0 0 0 0 0 0 0 0 0 0 0 0 0 0 0 0 0 0 0 0 0 0 0 0
0 1 1 1 1 1 1 1 1 0 0 0 0 0 0 0 0 0 0 0 0 0 0 0 0 0 0 0 0 0 0 0 0 0 0 0 0 0 0 0 0 0 0
0 1 1 2 1 1 1 1 0 0 0 0 0 0 0 0 0 0 0 0 0 0 0 0 0 0 0 0 0 0 0 0 0 0 0 0 0 0 0 0 0 0 0
0 0 1 2 2 1 1 1 0 0 0 0 0 0 0 0 0 0 0 0 0 0 0 0 0 0 0 1 0 0 0 0 0 0 0 0 0 0 0 0 0 0 0
0 0 1 1 2 2 2 1 0 0 0 0 0 0 0 0 0 0 0 0 0 0 0 0 0 0 0 0 1 0 0 0 0 0 0 0 0 0 0 0 0 0 0
0 0 0 1 2 2 2 2 1 0 0 0 0 0 0 0 0 0 0 0 0 0 0 0 0 0 0 0 0 0 0 0 0 0 0 0 0 0 0 0 0 0 0
0 0 0 0 1 2 2 2 1 0 0 0 0 0 0 0 0 0 0 0 0 0 0 0 0 0 0 0 0 0 0 0 0 0 0 0 0 0 0 0 0 0 0
Wind_Speed
2 2 2 5 7 8 9 9 10 10 10 11 11 11 11 12 12 11 11 11 11 12 12 12 13 12 12 12 12 12 11 12 11 11 10 10 10 9 9 8 7 5 8
1 0 3 6 7 8 8 9 9 9 10 10 11 11 11 11 11 11 11 10 10 11 11 12 11 12 11 10 10 10 10 10 11 10 9 8 9 8 8 8 7 5 8
3 3 4 6 7 8 8 9 9 9 9 9 10 10 10 10 10 10 10 9 10 10 10 10 10 10 10 10 9 9 9 9 9 9 9 5 5 7 7 7 7 7 7
3 4 4 6 7 8 8 9 9 9 9 9 9 9 9 9 9 9 9 9 9 9 9 9 9 9 9 9 9 8 8 8 9 8 5 4 4 6 7 6 7 7 7
4 4 4 7 7 8 8 9 9 9 8 8 9 9 9 9 8 8 8 8 8 8 8 8 8 8 8 8 8 7 7 8 8 6 4 4 4 5 6 6 5 6 5
5 4 4 7 7 8 8 8 9 9 9 9 9 9 8 8 8 8 8 8 7 7 8 8 7 7 8 8 7 8 7 7 6 4 3 3 3 5 6 5 4 4 4
5 4 4 7 7 8 8 9 9 9 9 9 9 9 9 8 8 7 7 7 7 7 7 7 7 7 7 8 8 7 8 7 4 3 3 3 4 6 6 6 5 5 4
5 5 5 7 8 8 9 9 10 10 10 10 10 9 9 9 9 8 8 7 7 7 7 7 7 7 7 7 7 7 7 6 4 4 3 3 5 6 7 7 6 5 5
6 6 5 5 6 7 8 9 10 10 10 10 10 10 10 9 9 9 9 8 8 7 7 7 7 7 7 7 7 7 7 7 4 3 4 3 6 7 7 7 6 6 6
5 5 5 5 5 5 5 8 9 9 9 10 10 9 9 9 9 9 8 9 8 8 8 8 8 8 8 8 8 8 7 6 3 3 3 4 7 7 7 8 7 7 7
5 4 4 4 5 4 4 5 6 7 8 8 7 8 7 5 5 5 7 8 9 9 8 8 8 8 7 7 8 7 6 3 3 3 3 6 7 8 8 8 9 9 8
3 3 3 4 4 3 3 3 3 4 4 5 5 5 4 4 4 5 7 8 8 8 8 9 9 8 6 3 5 5 3 3 3 3 4 8 8 8 8 9 9 9 9
1 2 3 3 3 3 2 2 2 2 3 4 5 4 4 3 3 4 3 4 5 6 5 6 6 4 3 3 3 3 3 3 2 2 5 8 9 9 9 9 9 9 9
1 2 2 2 2 2 2 2 2 2 2 3 3 4 3 2 3 3 3 3 3 3 3 3 3 4 4 3 3 3 3 2 2 2 4 9 10 10 10 9 9 9 9
2 2 2 1 2 2 1 1 2 2 2 2 2 3 3 2 2 2 2 3 3 3 3 3 3 3 3 3 3 3 3 3 3 3 3 9 10 11 11 11 10 10 11
2 2 2 2 2 2 1 1 2 2 2 2 2 3 3 2 2 2 2 2 3 3 2 2 2 2 2 2 3 3 3 3 3 3 3 5 10 11 11 11 11 11 11
2 2 2 1 2 2 2 2 2 2 2 2 2 2 3 2 2 2 2 2 2 2 3 2 2 2 2 2 3 3 3 3 3 4 4 3 4 9 12 12 12 12 12
2 2 2 1 2 2 2 2 2 2 2 1 1 2 2 2 2 1 1 2 2 2 2 2 2 2 2 2 2 2 2 2 3 3 3 4 4 4 8 13 13 13 13
3 3 2 2 2 1 1 2 2 2 2 1 1 2 2 2 2 1 1 1 2 2 2 2 2 1 2 2 2 1 1 2 2 3 4 4 4 4 4 8 12 13 13
3 3 2 2 2 1 1 1 2 2 2 2 2 2 2 2 2 1 1 2 2 2 2 2 2 2 1 2 2 2 1 1 2 2 3 3 3 5 4 5 5 7 12
4 3 2 2 1 1 0 0 0 0 1 1 1 2 2 2 2 1 1 1 2 1 2 2 1 2 2 2 1 2 1 1 2 2 2 3 4 3 3 4 4 3 5
3 3 2 2 1 0 0 1 1 1 1 0 1 2 2 2 2 1 2 1 1 1 2 2 2 1 1 2 1 1 2 2 2 2 2 2 3 3 3 4 3 3 3
2 2 2 2 1 1 1 1 1 1 1 1 2 2 3 3 3 2 2 1 2 1 1 1 1 0 1 1 1 1 0 2 3 1 1 2 3 2 3 3 3 3 4
3 2 2 2 2 1 1 1 1 1 0 1 1 1 2 2 3 3 3 3 2 2 2 2 1 1 0 1 1 1 0 0 1 2 2 1 2 3 3 4 3 3 3
2 1 1 2 2 1 1 1 1 1 0 0 1 2 2 2 3 3 3 2 2 2 2 2 2 2 1 0 0 1 1 1 1 2 4 3 3 2 2 3 2 2 3
2 2 1 1 2 2 1 1 1 1 1 1 1 1 2 2 2 3 2 2 2 2 2 2 2 2 1 1 0 0 0 0 1 1 3 4 4 3 3 2 2 2 2
Wind_Direction
315 320 32 89 89 88 92 96 94 91 91 91 89 88 84 82 79 75 74 73 71 71 71 69 67 66 65 62 60 58 56 53 50 48 47 47 48 55 58 58 54 44 55
187 359 84 83 89 86 87 92 96 96 95 94 92 90 86 82 79 76 72 73 72 71 71 70 68 64 61 61 60 58 55 53 49 44 40 36 36 46 52 55 50 46 47
93 81 82 80 86 85 82 86 91 94 96 95 92 88 86 82 79 76 73 71 73 73 72 69 66 62 58 54 55 55 53 51 46 40 34 20 17 33 45 49 47 44 41
88 81 76 78 84 86 84 82 83 88 93 93 93 89 86 82 79 78 74 69 69 69 70 68 63 57 54 49 47 49 47 45 42 38 27 12 3 21 37 43 42 41 38
72 69 73 77 82 85 84 82 80 78 84 88 90 88 83 79 77 76 73 67 64 61 61 61 58 52 47 44 40 40 40 39 37 34 19 8 357 7 25 30 31 33 32
62 57 69 75 81 84 81 80 79 76 75 79 84 83 80 76 72 70 70 65 58 55 52 50 51 47 42 37 33 32 32 33 34 23 10 358 347 352 8 15 17 22 25
67 55 63 73 72 75 78 79 77 74 71 69 70 74 74 71 66 62 62 60 55 50 46 42 39 41 40 36 31 30 31 27 35 18 360 346 333 350 2 10 13 13 14
73 59 55 61 64 64 66 69 70 69 66 66 66 65 68 68 63 56 51 50 48 47 44 38 32 33 34 33 32 29 29 28 27 12 357 344 344 356 6 11 10 8 6
62 61 52 50 59 61 61 64 66 65 63 63 63 59 55 54 56 51 43 41 40 39 37 33 29 29 29 30 30 27 27 25 26 6 358 350 350 357 5 7 7 7 4
53 57 54 48 49 54 58 61 63 61 59 58 56 53 52 48 47 47 40 37 35 32 29 26 26 28 27 26 27 25 21 19 17 6 355 347 355 4 12 15 14 12 6
44 39 45 50 46 44 53 59 59 58 55 55 50 50 48 39 36 38 34 31 29 25 21 20 19 24 24 21 19 22 22 20 13 10 355 356 5 10 12 18 20 20 20
42 28 32 39 45 45 52 57 50 49 47 46 45 44 42 37 32 34 28 25 24 23 18 19 19 18 21 12 8 16 26 25 26 13 3 6 11 14 17 19 20 20 19
49 29 30 31 31 42 53 61 53 46 43 41 40 40 41 39 33 32 26 15 15 19 18 12 14 12 12 9 10 15 21 32 29 20 10 10 12 11 12 12 13 12 10
54 28 16 20 29 31 55 67 66 61 50 41 33 35 43 41 34 29 29 16 14 12 11 10 6 3 3 6 14 20 23 29 28 25 20 16 13 13 11 8 7 7 4
26 6 351 19 36 31 53 60 68 64 59 45 37 35 44 47 34 27 22 18 10 5 7 3 2 1 2 6 16 23 30 30 30 33 22 21 18 16 12 9 8 7 6
2 352 350 17 31 41 61 75 72 72 65 55 43 34 39 44 40 33 22 16 7 357 352 356 357 359 356 8 16 21 27 33 35 35 31 22 24 21 16 13 11 9 8
351 350 350 9 41 57 58 72 83 77 72 61 44 37 40 40 42 40 27 12 353 348 352 360 4 16 17 23 18 20 24 29 33 36 33 30 20 21 19 16 13 9 8
3 2 10 36 58 63 67 65 72 79 79 63 46 38 34 28 33 49 34 2 348 360 6 2 7 13 14 10 5 10 17 30 32 36 36 35 31 23 19 21 18 13 10
360 2 20 37 63 71 72 73 67 59 63 56 51 41 25 19 17 38 28 356 354 13 15 2 9 7 359 353 350 7 18 35 32 42 42 37 36 32 23 20 19 15 11
2 7 19 36 39 47 79 77 73 58 48 42 43 33 23 12 12 21 20 7 9 21 17 8 360 17 2 342 344 357 3 38 49 45 37 30 31 30 25 21 15 8 9
9 9 359 15 14 43 77 144 126 79 29 32 37 31 21 8 7 20 9 13 19 25 13 3 347 15 15 5 3 348 353 37 58 42 33 31 26 21 22 25 20 12 0
351 350 350 341 346 39 300 214 180 165 126 74 31 30 17 2 354 16 24 14 12 14 26 22 15 350 7 23 15 335 325 330 26 18 29 36 20 15 17 13 14 10 3
333 326 323 327 341 6 17 59 65 64 39 27 6 12 11 12 9 11 20 28 19 26 20 14 3 346 277 329 29 72 354 289 322 332 15 27 20 4 359 358 7 1 357
294 312 328 328 342 356 54 93 105 118 129 293 320 333 7 24 32 25 21 28 26 24 16 357 0 333 270 282 331 5 354 204 268 302 312 7 4 350 347 341 344 347 352
297 312 320 325 333 346 55 99 140 150 184 359 359 10 12 20 30 22 23 31 25 17 12 7 4 7 3 333 322 330 328 331 288 266 291 314 325 317 322 314 323 338 348
331 333 331 329 333 346 33 96 160 203 223 50 1 354 357 5 14 12 13 15 12 10 7 4 7 18 8 11 1 352 335 297 283 273 275 294 301 301 300 287 306 319 329